EW4229 Weather Reports


Display with metric or nautical units.
time (UTC)temp
F
wind
direction
speed
MPH
gust
MPH
rain 1hr
in
rain 24hr
in
rain mn
in
humidity
%
barometer
mb
20260831071526 70 252 0.0 0.0 0.00 0.00 0.00 92 1018.4
20260831070026 71 252 0.0 0.0 0.00 0.00 0.00 91 1018.6
20260831064519 71 245 0.0 0.0 0.00 0.00 0.00 91 1018.7
20260831063018 71 245 0.0 0.0 0.00 0.00 0.00 1018.7
20260831061514 0 0.0 0.0 0.00 0.00 0.00 1018.8
20260831060008 0 0.0 0.0 0.00 0.00 0.00 1019.0
20260831054504 0 0.0 0.0 0.00 0.00 0.00 1019.0
20260831053105 0 0.0 0.0 0.00 0.00 0.00 1018.9
20260831051619 73 356 0.0 0.0 0.00 0.00 0.00 85 1018.9
20260831050056 73 356 0.0 0.0 0.00 0.00 0.00 85 1018.9
20260831044555 74 356 0.0 0.0 0.00 0.00 0.00 82 1018.9
20260831043050 74 356 0.0 1.0 0.00 0.00 0.00 81 1018.8
20260831041552 74 30 0.0 1.0 0.00 0.00 0.00 81 1018.6
20260831040052 75 82 0.0 2.0 0.00 0.00 0.00 80 1018.6
20260831034549 75 91 0.0 3.0 0.00 0.00 0.00 79 1018.9
20260831033050 76 308 0.0 1.0 0.00 0.00 0.00 79 1019.1
20260831031548 76 358 0.0 0.0 0.00 0.00 0.00 81 1019.2
20260831030046 76 326 0.0 1.0 0.00 0.00 0.00 79 1019.3
20260831024558 76 322 0.0 1.0 0.00 0.00 0.00 80 1019.2
20260831023045 76 326 0.0 1.0 0.00 0.00 0.00 80 1019.2
20260831021556 76 326 0.0 1.0 0.00 0.00 0.00 83 1019.2
20260831020045 76 357 1.0 4.0 0.00 0.00 0.00 84 1019.1
20260831014544 75 320 0.0 0.0 0.00 0.00 0.00 85 1019.1
20260831013044 76 320 0.0 0.0 0.00 0.00 0.00 84 1019.1
20260831011544 76 321 0.0 0.0 0.00 0.00 0.00 84 1018.9
20260831010117 76 321 0.0 0.0 0.00 0.00 0.00 83 1018.8
20260831004549 76 321 0.0 0.0 0.00 0.00 0.00 83 1018.5
20260831003043 76 321 0.0 0.0 0.00 0.00 0.00 83 1018.2
20260831001553 77 321 0.0 0.0 0.00 0.00 0.00 81 1017.8
20260831000043 76 290 0.0 0.0 0.00 0.00 0.00 84 1017.4
20260830234542 77 290 0.0 0.0 0.00 0.00 0.00 83 1017.6
20260830233042 78 290 0.0 0.0 0.00 0.00 0.00 80 1017.6
20260830231541 78 290 0.0 0.0 0.00 0.00 0.00 81 1017.7
20260830230049 79 285 0.0 0.0 0.00 0.00 0.00 85 1017.8
20260830224550 0 0.0 0.0 0.00 0.00 0.00 1017.8
20260830223042 0 0.0 0.0 0.00 0.00 0.00 1017.9
20260830221539 81 89 0.0 1.0 0.00 0.00 0.00 79 1017.7
20260830220138 81 88 0.0 1.0 0.00 0.00 0.00 78 1017.5
20260830214541 81 89 0.0 1.0 0.00 0.00 0.00 76 1017.4
20260830213035 0 0.0 0.0 0.00 0.00 0.00 1017.5
20260830211531 84 0.0 0.0 0.00 0.00 0.00 70 1017.4
20260830210031 85 323 0.0 2.0 0.00 0.00 0.00 68 1017.5
20260830204531 86 162 0.0 4.0 0.00 0.00 0.00 68 1017.4
20260830203027 85 326 0.0 3.0 0.00 0.00 0.00 68 1017.6
20260830201526 84 319 0.0 3.0 0.00 0.00 0.00 70 1017.6
20260830200022 85 153 1.0 3.0 0.00 0.00 0.00 67 1017.7
20260830194520 85 120 1.0 4.0 0.00 0.00 0.00 68 1017.9
20260830193016 84 260 1.0 7.0 0.00 0.00 0.00 67 1018.2
20260830191514 84 311 3.0 6.0 0.00 0.00 0.00 70 1018.5
20260830190019 83 31 0.0 2.0 0.00 0.00 0.00 73 1018.8
20260830184513 83 322 1.0 9.0 0.00 0.00 0.00 70 1019.0
20260830183012 84 319 1.0 5.0 0.00 0.00 0.00 70 1019.2
20260830181506 83 319 1.0 6.0 0.00 0.00 0.00 72 1019.3
20260830180006 82 310 1.0 5.0 0.00 0.00 0.00 75 1019.5
20260830174502 0 0.0 0.0 0.00 0.00 0.00 1019.8
20260830173127 0 180 0.0 0.0 0.00 0.00 0.00 1020.0
20260830171601 79 0.0 0.0 0.00 0.00 0.00 1020.0
20260830170049 0 0.0 0.0 0.00 0.00 0.00 1020.4
20260830164545 0 0.0 0.0 0.00 0.00 0.00 1020.3
20260830163041 0 0.0 0.0 0.00 0.00 0.00 1020.4
20260830161542 0 0.0 0.0 0.00 0.00 0.00 1020.5
20260830160035 77 162 0.0 0.0 0.00 0.00 0.00 1020.6
20260830154532 0 0.0 0.0 0.00 0.00 0.00 1021.0
20260830153026 0 226 3.0 0.0 0.00 0.00 0.00 1021.1
20260830151521 72 0.0 0.0 0.00 0.00 0.00 85 1021.1
20260830150019 72 316 0.0 3.0 0.00 0.00 0.00 86 1021.1
20260830144518 71 321 1.0 3.0 0.00 0.00 0.00 87 1021.2
20260830143012 70 36 0.0 1.0 0.00 0.00 0.00 86 1021.3
20260830141507 69 143 0.0 1.0 0.00 0.00 0.00 86 1021.3
20260830140007 69 17 0.0 1.0 0.00 0.00 0.00 85 1021.4
20260830134515 68 141 0.0 1.0 0.00 0.00 0.00 85 1021.3
20260830133003 68 141 0.0 1.0 0.00 0.00 0.00 85 1021.4
20260830131616 67 127 0.0 1.0 0.00 0.00 0.00 86 1021.6
20260830130108 67 141 0.0 1.0 0.00 0.00 0.00 86 1021.9
20260830124558 66 141 0.0 1.0 0.00 0.00 0.00 87 1021.8
20260830123057 65 63 0.0 1.0 0.00 0.00 0.00 88 1021.8
20260830121552 65 56 0.0 1.0 0.00 0.00 0.00 89 1021.7
20260830120050 64 55 0.0 0.0 0.00 0.00 0.00 89 1021.8
20260830114551 63 55 0.0 1.0 0.00 0.00 0.00 89 1021.9
20260830113046 63 349 0.0 1.0 0.00 0.00 0.00 89 1021.9
20260830111544 63 333 0.0 0.0 0.00 0.00 0.00 90 1022.0
20260830110104 62 333 0.0 0.0 0.00 0.00 0.00 90 1021.9
20260830104544 62 333 0.0 1.0 0.00 0.00 0.00 90 1022.0
20260830103041 0 0.0 0.0 0.00 0.00 0.00 1022.0
20260830101538 62 0.0 0.0 0.00 0.00 0.00 90 1021.8
20260830100037 61 333 0.0 1.0 0.00 0.00 0.00 89 1022.0
20260830094536 61 333 0.0 0.0 0.00 0.00 0.00 90 1022.0
20260830093049 61 142 0.0 1.0 0.00 0.00 0.00 89 1022.0
20260830091534 61 333 0.0 1.0 0.00 0.00 0.00 89 1022.0
20260830090038 61 182 0.0 0.0 0.00 0.00 0.00 91 1022.0
20260830084531 61 182 0.0 0.0 0.00 0.00 0.00 93 1022.1
20260830083030 61 182 0.0 0.0 0.00 0.00 0.00 93 1022.3
20260830081533 61 182 0.0 0.0 0.00 0.00 0.00 94 1022.3
20260830080027 60 182 0.0 0.0 0.00 0.00 0.00 95 1022.5
20260830074546 59 182 0.0 0.0 0.00 0.00 0.00 95 1022.4
20260830073025 59 182 0.0 0.0 0.00 0.00 0.00 95 1022.7